{"data":{"norad_id":63696,"epoch":"2026-05-25T04:39:25.860384Z","epoch_age_seconds":55463,"freshness":"FRESH","line1":"1 63696U 25086K   26145.19404931  .00000072  00000+0  13371-3 0  9996","line2":"2 63696  86.5015 320.8043 0001529  80.5351 279.5955 13.24408795 51816","mean_motion":13.24408795,"eccentricity":0.0001529,"inclination_deg":86.5015,"raan_deg":320.8043,"arg_perigee_deg":80.5351,"mean_anomaly_deg":279.5955,"bstar":0.00013371,"rev_number":5181,"period_min":108.7277587884,"perigee_km":1166.772969614,"apogee_km":1169.0805559127,"semimajor_km":7546.0637627633,"source":"CELESTRAK","updated_at":"2026-05-25T13:38:03.892610Z"}}